STARLINK-32794, 62844

Orbit data source: Space-Track

STARLINK-32794, 62844 is a payload satellite owned by SpaceX/Seattle (US) in LEO that was launched on Mon, 27 Jan 2025 UTC via an FALCON 9 launch vehicle from the Air Force Eastern Test Range (AFETR). Payload-class satellites include a variety of spacecraft equipped with specific instruments for various scientific and technological missions. These include communications satellites like Starlink; space stations such as the ISS; scientific satellites like the Hubble; Earth observation satellites from companies like Planet Labs, Umbra, and HawkEye 360; GPS; miniature CubeSats for education and research; and military/defense satellites.

Loading next visibility...
Identifier
62844, 2025-019R
Orbit
LEO
Last TLE update
20 hours ago
Origin
Manufacturer
SpaceX/Seattle
Mission
Operational Commercial Communications
Bus & Motor
STARLINK V2M, Unknown motor
Mass
730 kg wet, ~700 kg dry
Launch date (UTC)
2025-01-27 (3 months ago)
Launch vehicle
FALCON 9
Launch site
Air Force Eastern Test Range (AFETR)
Object type
Payload
Rocket body
Debris
Shape & HBR
Box + 2 Pan, 29 m
Radar Cross Section
33.884 m², Large (>1 m²)

Expand to show TLE details & history

TLE from 20 hours ago
0 STARLINK-32794
1 62844U 25019R   25128.37340234  .00007031  00000-0  26519-3 0  9992
2 62844  42.9994  13.5116 0000996 248.2542 111.8204 15.27528059 16144
Epoch: 2025-05-08T08:57Z
Definitive object data (Epoch: 2025-05-08T08:57:41.962Z)
Latitude
0.00002°
Longitude
12.64195°
Altitude
483.234 km
Speed
7.625 km/s
True Right ascension
00h 54m 02s
True Declination
0° 00' 00"
Sunlit
Object was in daylight at TLE epoch
Visualization TLE readout
Latitude
0.49969°
Longitude
8.37162°
Altitude
483.079 km
Speed
7.626 km/s
Apparent Right ascension
00h 59m 17s
Apparent Declination
-18° 57' 08"
Sunlit
Object is in daylight
Visualization observer readout
Local Sidereal Time
13:30:36
Azimuth
20.099° NNE
Elevation
-67.979°
Doppler factor
1
Orbital elements
Apogee altitude
485.833 km
Perigee altitude
484.466 km
Semi-major axis
6,863.287 km
Eccentricity
0.0000996
Inclination
42.9994°
RAAN
13.5116°
Arg. of periapsis
248.2542°
True anomaly
111.831°
Mean anomaly
111.8204°
Eccentric anomaly
111.8257°
Mean motion
3.8172 °/min
BSTAR
0.00026519
Orbital period
94.31 mins
Loading maneuver chart data...
Loading SW <> Apogee altitude chart data...
Loading historical data...
Loading historical data...
Loading historical data...
Loading historical data...
Loading historical data...
Loading historical data...
Loading historical data...

STARLINK-32794 Visibility forecast

Observer location: undefined°, undefined°

Span
Click to sort rows by Start time (UTC) header in descending order
Start Az.
Max El. time (UTC)
Max El. Az.
Max El.
End time (UTC)
End Az.
5 mins2025-05-09 19:43:57.366Z222.219° SW2025-05-09 19:45:57.366Z134.163° SE39.198°2025-05-09 19:48:57.366Z77.767° E
5 mins2025-05-09 21:22:57.366Z284.446° WNW2025-05-09 21:24:57.366Z13.778° NNE39.23°2025-05-09 21:27:57.366Z70.593° E
5 mins2025-05-09 23:01:57.366Z297.277° NW2025-05-09 23:03:57.366Z15.916° NNE41.114°2025-05-09 23:06:57.366Z89.625° E
5 mins2025-05-10 00:40:57.366Z268.373° W2025-05-10 00:42:57.366Z199.53° SSW35.837°2025-05-10 00:45:57.366Z135.269° SSE
|